This demonstration page uses our WeatherBlox Daily Observations layout. Learn more.

39.08367, -84.50855

Hourly Observations for January 12, 2020

Temp ( °F °C ) Dew Point ( °F °C ) Humidity (%) Winds ( mph kmh ) Pressure ( in mb ) Visibility ( mi km ) Precip ( " mm )
12:53 am 00:53 Cloudy 44 6.7 43 6.1 96 96 WSW 26 43 29.94 1014 10 16.0934 0.001 0.001
1:53 am 01:53 Cloudy 43 6.1 41 5 93 93 WSW 24 39 30.03 1017 10 16.0934 0.001 0.001
2:53 am 02:53 Cloudy 42 5.6 38 3.3 85 85 WSW 13 20 30.09 1019 10 16.0934 0 0
3:53 am 03:53 Cloudy 41 5 36 2.2 82 82 WSW 13 20 30.14 1021 10 16.0934 0 0
4:53 am 04:53 Cloudy 41 5 34 1.1 76 76 W 13 20 30.19 1022 10 16.0934 0 0
5:53 am 05:53 Cloudy 41 5 35 1.7 79 79 WSW 10 17 30.23 1024 10 16.0934 0 0
6:53 am 06:53 Cloudy 40 4.4 33 0.6 77 77 WSW 9 15 30.27 1025 10 16.0934 0 0
7:53 am 07:53 Cloudy 40 4.4 33 0.6 77 77 W 7 11 30.28 1025 10 16.0934 0 0
8:53 am 08:53 Cloudy 40 4.4 33 0.6 77 77 W 9 15 30.31 1027 10 16.0934 0 0
9:53 am 09:53 Cloudy 40 4.4 33 0.6 77 77 W 8 13 30.35 1028 10 16.0934 0 0
10:53 am 10:53 Cloudy 40 4.4 34 1.1 79 79 WNW 7 11 30.38 1029 10 16.0934 0 0
11:53 am 11:53 Cloudy 40 4.4 34 1.1 79 79 SW 5 7 30.38 1029 10 16.0934 0 0
12:53 pm 12:53 Cloudy 41 5 33 0.6 73 73 VRB 3 6 30.35 1028 10 16.0934 0 0
1:53 pm 13:53 Cloudy 41 5 35 1.7 79 79 SSW 6 9 30.32 1027 10 16.0934 0 0
2:53 pm 14:53 Cloudy 42 5.6 35 1.7 76 76 SW 3 6 30.31 1026 10 16.0934 0 0
3:53 pm 15:53 Cloudy 42 5.6 34 1.1 73 73 Calm 30.31 1026 10 16.0934 0 0
4:53 pm 16:53 Cloudy 42 5.6 35 1.7 76 76 Calm 30.31 1026 10 16.0934 0 0
5:53 pm 17:53 Cloudy 42 5.6 36 2.2 79 79 ENE 3 6 30.3 1026 10 16.0934 0 0
6:53 pm 18:53 Cloudy 42 5.6 36 2.2 79 79 Calm 30.3 1026 10 16.0934 0 0
7:53 pm 19:53 Cloudy 41 5 36 2.2 82 82 ENE 3 6 30.29 1026 10 16.0934 0 0
8:23 pm 20:23 Partly Cloudy 40 4.4 36 2.2 86 86 Calm 30.3 1026 10 16.0934 0 0
8:53 pm 20:53 Clear 38 3.3 36 2.2 93 93 Calm 30.29 1026 10 16.0934 0 0
9:01 pm 21:01 Mostly Cloudy 39 3.9 36 2.2 89 89 Calm 30.3 1026 10 16.0934 0 0
9:53 pm 21:53 Cloudy 39 3.9 37 2.8 93 93 Calm 30.27 1025 10 16.0934 0 0
10:53 pm 22:53 Cloudy 40 4.4 38 3.3 93 93 Calm 30.28 1026 10 16.0934 0 0
11:53 pm 23:53 Cloudy 40 4.4 38 3.3 93 93 Calm 30.28 1026 10 16.0934 0 0

Powered by AerisWeather